RADUGA-1 7 (28194 NORAD) Tracking and Keplerian Element Data

This shows tracking and keplerian element data for the satellite.

Feedback or suggestion? Click here.




ElementValue
Catalog28194
NameRADUGA-1 7
Epoch Orbit7642
Epoch Day34.74052709
Epoch Year2025
RAAN24.656
Inclination13.0972
Eccentricity0.0005094
Argument of Perigee227.7999
Mean Anonmoly269.0224
Mean Motion1.00323584
Decay Rate-3.71E-06
L11 28194U 04010A 25034.74052709 -.00000371 00000+0 00000+0 0 9997
L22 28194 13.0972 24.6560 0005094 227.7999 269.0224 1.00323584 76424



Live tracking and technical data element details for RADUGA-1 7 (NORAD 28194). RADUGA-1 7 can be tracked NOW for your location showing map with azimuth and elevation plus other details from your city location.







IsCatalogInMostPopularTable: catalog: 28194, numindb: 333
Update: records affected: 1



GetName: 28194 RADUGA-1 7

Hit Count: updated at: Thu, 22 May 2025 04:25:53 GMT